FENGYUN 4A (41882 NORAD) Tracking and Keplerian Element Data

This shows tracking and keplerian element data for the satellite.

Feedback or suggestion? Click here.




ElementValue
Catalog41882
NameFENGYUN 4A
Epoch Orbit599
Epoch Day198.9798835
Epoch Year2018
RAAN8.8723
Inclination0.0071
Eccentricity0.0007209
Argument of Perigee134.5536
Mean Anonmoly249.6515
Mean Motion1.0027481
Decay Rate-3.5E-06
L11 41882U 16077A 18198.97988350 -.00000350 00000-0 00000-0 0 9999
L22 41882 0.0071 8.8723 0007209 134.5536 249.6515 1.00274810 5994

Live tracking and technical data element details for FENGYUN 4A (NORAD 41882). FENGYUN 4A can be tracked NOW for your location showing map with azimuth and elevation plus other details from your city location.

Track the satellite on the map from your city or location and see movement details for azimuth, elevation, latitude, longitude, range, height, and movement on the map or in text.







IsCatalogInMostPopularTable: catalog: 41882, numindb: 82
Update: records affected: 1



GetName: 41882 FENGYUN 4A

Hit Count: updated at: Fri, 20 Jul 2018 02:41:36 GMT